EST,Max TemperatureF,Mean TemperatureF,Min TemperatureF,Max Dew PointF,MeanDew PointF,Min DewpointF,Max Humidity, Mean Humidity, Min Humidity, Max Sea Level PressureIn, Mean Sea Level PressureIn, Min Sea Level PressureIn, Max VisibilityMiles, Mean VisibilityMiles, Min VisibilityMiles, Max Wind SpeedMPH, Mean Wind SpeedMPH, Max Gust SpeedMPH,PrecipitationIn, CloudCover, Events, WindDirDegrees
2011-11-1,61,46,30,40,31,27,93,75,38,30.27,30.22,30.19,10,6,0,10,1,,0.00,0,Fog,183
2011-11-2,66,55,44,39,37,34,68,52,37,30.23,30.14,30.03,10,10,10,16,8,22,0.00,0,,195
2011-11-3,53,48,43,45,40,36,82,70,59,30.10,30.01,29.96,10,9,6,15,7,28,0.00,4,,50
2011-11-4,53,43,33,35,29,21,82,63,31,30.35,30.26,30.11,10,10,10,14,9,23,0.00,1,,35
2011-11-5,57,42,28,29,26,24,93,65,33,30.38,30.31,30.22,10,8,1,9,2,,0.00,0,,132
2011-11-6,63,48,35,40,35,25,70,56,44,30.26,30.21,30.15,10,10,10,17,7,25,0.00,1,,186
2011-11-7,55,54,53,52,49,40,94,84,57,30.27,30.23,30.20,10,6,0,9,5,,0.07,8,Fog-Rain,195
2011-11-8,68,60,53,52,50,48,94,75,49,30.21,30.11,29.97,10,7,2,16,5,28,0.00,7,Rain,154
2011-11-9,64,53,42,54,45,32,94,72,56,29.96,29.79,29.62,10,9,2,26,15,47,0.17,7,Rain,205
2011-11-10,43,38,33,34,29,22,89,73,43,30.00,29.96,29.94,10,8,2,13,8,23,0.01,6,Snow,246
2011-11-11,43,38,32,32,28,24,89,74,49,30.04,29.97,29.86,10,7,1,13,5,21,0.06,5,Snow,229
2011-11-12,60,48,36,36,33,26,76,55,41,29.93,29.87,29.82,10,10,10,17,10,26,0.00,0,,204
2011-11-13,64,58,52,53,45,34,70,59,47,29.80,29.64,29.55,10,10,10,22,17,31,0.00,5,,200
2011-11-14,66,55,44,59,45,32,94,78,38,29.75,29.64,29.47,10,7,1,17,5,30,1.10,5,Rain-Thunderstorm,234
2011-11-15,57,50,42,50,45,41,100,86,67,29.87,29.81,29.75,10,5,0,15,3,22,0.00,3,Fog,198
2011-11-16,51,44,35,48,36,21,94,73,39,30.11,29.93,29.82,10,7,2,15,5,20,0.00,2,,272
2011-11-17,37,32,28,25,18,14,72,56,44,30.30,30.18,30.11,10,10,10,14,5,25,0.00,2,,250
2011-11-18,48,36,25,22,18,15,75,48,27,30.34,30.22,30.06,10,10,10,20,9,31,0.00,1,,199
2011-11-19,54,48,41,44,34,23,82,61,47,30.09,30.02,29.89,10,10,9,16,11,25,0.01,6,Rain,199
2011-11-20,60,51,42,50,40,33,72,67,59,30.30,30.14,29.91,10,10,8,16,11,26,0.00,4,,320
2011-11-21,44,40,37,36,35,33,89,78,70,30.36,30.30,30.24,10,10,7,10,7,,0.19,8,Rain,57
2011-11-22,45,41,37,41,38,33,93,86,76,30.25,29.88,29.68,10,4,1,22,11,33,1.59,8,Rain,48
2011-11-23,52,44,35,38,35,31,93,77,49,30.27,30.10,29.84,10,9,3,16,9,23,0.01,4,Rain,299
2011-11-24,45,40,35,39,36,33,93,89,76,30.32,30.26,30.18,8,4,0,15,7,22,0.00,7,Fog,222
2011-11-25,60,48,37,41,38,35,89,71,49,30.18,30.09,30.02,10,9,6,22,10,29,0.00,0,,203
2011-11-26,64,55,46,48,43,36,71,62,54,30.05,29.99,29.86,10,10,10,16,9,25,0.00,3,Rain,192
2011-11-27,57,48,39,54,47,34,94,87,72,30.06,29.86,29.77,10,7,2,14,10,22,0.59,8,Rain,255
2011-11-28,41,39,37,36,33,30,87,81,73,30.11,30.03,29.88,10,9,2,16,11,22,0.34,8,Rain,29
2011-11-29,41,37,33,37,33,30,93,87,81,29.85,29.69,29.60,6,2,1,24,17,36,2.69,8,Rain-Snow-Thunderstorm,353
2011-11-30,39,34,28,30,28,24,89,79,65,30.21,29.91,29.72,10,6,1,20,14,29,0.00,4,Snow,305